Theta_e
349 348 344 340 338 335 332 332 332 333 335 338 339 341 341 340 340 339 338 338 336 335 334 330 324 320 317 314 314 316 316 315 314 313 313 313 311 312 311 310 310 309 309 309 309 309 310 310 312 313 315 320 327 330 331 330 329 329 330 331 332 333 334 334 334 334 334 334 334 335 335 336 336 337 337 337 337 337 337 336 336 335 336 335 335
349 346 343 340 338 335 332 331 331 333 336 338 339 341 341 340 340 339 339 337 336 335 334 333 330 325 321 316 313 315 316 316 315 314 313 312 311 311 311 310 310 309 309 309 309 309 310 310 311 313 314 318 325 329 331 330 331 330 331 332 332 333 333 332 332 334 334 335 335 336 336 337 337 337 337 337 337 337 336 336 336 335 335 335 334
348 344 341 339 337 334 332 331 331 332 335 338 339 340 341 340 340 339 339 337 336 335 334 334 333 329 326 320 315 314 315 315 314 314 313 312 312 311 312 311 310 309 309 309 309 309 309 310 311 313 313 317 323 328 329 330 330 330 330 331 332 332 331 331 333 336 336 336 336 337 337 337 337 337 337 337 337 337 337 337 336 335 335 334 334
348 344 340 338 337 334 332 331 330 331 334 338 339 340 340 340 339 339 339 338 336 335 335 335 334 332 330 326 319 315 315 315 314 315 314 313 312 311 312 311 310 309 310 309 309 309 309 309 311 312 313 317 322 326 328 329 329 329 330 331 331 330 330 332 334 337 337 337 336 336 337 337 337 337 337 337 337 337 337 337 336 335 334 332 331
349 344 340 338 337 334 332 330 329 330 333 336 338 339 339 339 339 339 339 338 337 335 336 335 335 334 332 330 326 319 315 314 315 315 315 314 313 311 311 311 310 310 311 310 309 309 309 309 310 312 313 316 319 324 328 329 329 329 330 330 329 329 330 332 333 334 336 337 337 336 336 336 337 336 336 336 337 336 336 335 334 333 330 328 326
349 344 339 338 337 333 331 330 329 328 330 334 336 338 338 339 339 339 339 338 337 336 336 335 335 334 333 332 329 324 318 315 315 315 315 315 315 312 311 311 310 311 312 311 312 312 313 311 309 311 312 314 317 321 326 329 329 329 328 328 328 330 331 331 331 333 334 334 335 337 336 336 336 336 336 336 336 334 333 331 329 327 324 323 322
346 341 339 338 337 333 331 330 327 327 328 332 335 337 338 338 339 339 339 339 338 337 336 336 335 335 334 333 330 327 322 318 314 315 316 317 316 314 316 315 311 312 312 314 317 317 316 313 310 310 311 313 315 318 323 327 328 328 327 328 330 331 331 331 332 333 333 333 333 335 336 337 336 336 336 333 332 331 329 327 325 323 319 317 317
344 339 338 338 337 333 330 328 326 326 327 330 333 336 337 338 338 339 339 339 338 337 336 336 335 335 334 332 329 327 326 321 316 315 315 316 315 317 324 323 316 314 313 316 321 321 320 317 311 309 310 312 313 315 318 323 326 326 326 328 331 331 332 332 332 332 332 334 334 334 335 335 336 335 334 332 329 326 324 324 320 319 318 316 315
343 338 338 338 336 332 329 327 325 325 326 328 332 334 336 337 338 338 338 339 338 337 337 336 335 335 334 331 328 326 326 322 319 316 316 317 316 322 328 325 320 320 320 321 323 323 322 318 313 309 309 311 311 314 315 318 323 325 325 328 331 332 333 332 333 332 333 334 333 334 333 330 333 334 332 330 324 318 317 317 315 315 316 315 313
343 341 339 338 335 331 328 326 324 325 326 326 328 331 333 334 336 337 338 339 338 337 337 335 335 335 333 329 326 324 323 322 323 320 319 318 319 324 327 324 324 328 328 327 327 325 324 322 318 311 308 310 310 312 314 315 320 322 323 327 329 330 330 330 330 331 332 334 331 332 331 326 327 328 328 328 321 316 315 314 312 311 311 311 309
344 342 341 337 333 330 328 326 325 325 325 325 325 326 328 330 333 336 338 339 337 337 337 335 335 335 331 327 325 324 325 326 330 327 323 322 320 322 326 328 330 332 332 330 329 328 326 324 319 312 308 309 309 311 312 314 317 320 324 328 329 329 329 329 329 330 330 331 331 331 331 326 321 319 321 322 318 315 314 312 310 309 309 309 308
343 343 343 337 331 329 327 326 327 326 325 324 323 323 323 325 329 334 338 338 337 337 336 336 335 335 330 326 326 328 331 332 333 331 329 326 319 322 328 331 333 334 333 331 330 327 323 321 318 314 310 308 309 310 311 313 317 323 328 331 331 331 332 331 331 332 330 328 328 328 326 322 317 314 315 315 313 313 312 310 308 308 308 309 310
343 344 343 334 329 328 326 327 328 326 325 325 323 322 322 322 325 330 336 337 337 337 336 336 336 333 328 328 330 333 335 334 334 334 331 326 321 328 332 331 333 334 333 332 328 324 320 320 319 316 313 309 309 310 313 316 322 328 331 333 333 333 333 333 332 333 332 327 325 323 319 314 313 314 314 312 311 311 310 309 308 308 309 309 310
343 345 342 331 328 327 326 328 328 327 327 326 325 324 323 322 323 326 332 336 337 337 336 337 335 330 328 330 334 336 335 332 332 332 328 324 324 332 335 333 333 333 333 330 326 323 322 321 320 317 314 312 309 311 316 320 326 329 331 332 332 332 332 331 332 332 330 326 322 319 315 312 312 312 312 311 310 309 309 309 309 309 309 309 310
344 345 341 330 328 327 325 328 328 328 328 327 327 327 325 323 322 323 327 333 335 335 336 335 332 329 331 334 336 338 336 331 330 328 325 325 329 334 336 335 332 331 331 327 326 325 325 324 323 320 317 314 311 311 316 320 325 329 331 332 331 331 332 331 332 331 328 323 319 315 313 311 310 310 310 310 310 310 309 309 309 309 309 309 309
345 346 342 332 329 327 326 327 328 328 328 329 329 329 328 325 322 321 323 328 330 331 333 331 329 332 335 337 338 338 336 333 330 327 326 326 331 335 336 335 330 329 328 326 327 327 326 326 325 323 320 316 314 311 313 319 325 330 332 332 332 333 333 332 333 332 329 324 315 311 310 309 310 309 310 310 309 309 309 309 309 309 309 309 309
345 345 342 332 330 328 326 327 327 329 329 329 330 330 329 326 323 319 320 324 325 328 329 327 331 336 337 338 338 336 336 334 331 329 328 326 329 334 335 334 331 328 327 327 328 328 328 327 327 326 324 319 316 313 313 318 326 331 332 332 333 333 333 334 334 334 332 326 313 309 309 309 310 309 309 309 309 309 309 309 309 309 309 309 309
346 345 340 332 331 328 326 327 328 330 331 332 332 331 329 326 323 318 318 320 322 324 326 329 334 338 338 338 336 335 335 334 332 330 330 327 325 331 333 333 332 328 326 329 328 328 329 328 328 328 327 324 319 316 314 318 325 329 331 332 332 332 333 334 334 334 332 326 315 310 309 309 310 309 309 309 309 309 309 309 309 309 309 309 309
346 345 340 332 330 328 327 328 330 333 333 334 333 331 329 325 322 318 317 317 320 324 327 332 335 337 338 336 333 333 334 334 332 330 330 328 323 328 332 331 332 328 326 329 328 329 329 329 328 328 328 327 323 319 316 317 322 326 330 332 332 333 333 334 334 332 329 322 314 309 308 309 309 309 309 309 309 309 309 309 309 309 309 309 309
346 345 341 333 330 330 329 328 331 333 333 333 331 330 327 324 320 317 317 317 320 327 330 333 334 336 337 334 333 333 334 334 333 331 330 329 324 327 331 330 331 328 326 328 329 329 329 329 328 328 328 328 326 323 318 317 320 325 331 333 333 333 333 334 333 330 326 319 311 308 308 308 308 308 309 309 309 309 309 309 309 309 309 309 309
346 345 344 337 334 334 330 329 330 332 333 333 331 331 327 323 322 321 321 321 323 329 331 333 333 334 334 332 332 333 334 334 332 332 331 330 327 328 330 329 329 328 326 327 328 329 329 329 328 328 328 328 328 325 322 320 320 324 327 329 331 332 332 333 332 328 322 315 310 309 308 308 308 308 309 309 309 309 309 309 309 309 308 309 309
346 346 346 341 339 337 332 332 333 334 334 334 333 331 327 324 326 328 326 324 326 330 331 333 334 333 332 331 332 333 334 333 331 331 331 331 330 330 330 327 327 326 324 325 327 328 328 328 328 328 328 327 327 327 326 324 322 324 326 328 330 333 333 332 331 329 323 315 311 310 309 308 308 307 308 308 308 308 308 308 308 308 308 308 308
345 345 345 342 341 340 337 336 336 337 336 336 334 330 326 324 327 329 327 327 329 331 332 333 333 333 332 332 332 333 333 331 331 332 331 331 330 331 332 329 327 324 321 323 327 328 327 328 328 328 328 327 327 327 327 327 326 326 329 330 330 333 332 331 331 330 326 318 312 311 310 308 308 308 307 307 307 307 307 307 307 308 308 308 308
343 341 342 341 341 340 339 338 338 338 336 336 334 328 327 327 328 329 328 329 331 333 333 333 333 333 332 332 332 332 332 331 331 332 331 330 330 331 330 328 326 322 320 321 325 327 326 326 326 327 327 327 330 330 329 329 327 328 331 332 331 332 332 332 331 329 325 319 313 312 312 310 309 308 307 307 306 306 306 306 307 307 307 307 307
342 338 337 338 339 340 339 339 338 337 336 337 334 330 330 331 331 331 330 331 334 334 334 333 333 333 332 332 332 331 331 330 330 332 331 331 331 330 326 323 321 319 319 319 322 325 326 325 326 328 326 327 332 333 332 331 329 328 332 333 333 333 332 332 331 327 322 320 317 316 314 312 311 309 308 308 307 306 306 306 306 306 306 306 306
341 338 337 338 338 339 338 338 337 338 338 337 336 333 334 333 332 332 331 333 334 334 334 333 332 332 331 331 330 330 330 329 330 331 331 332 332 327 322 320 319 319 318 318 319 321 323 323 326 328 328 329 333 334 332 332 331 329 333 333 333 333 332 332 331 327 323 321 321 320 317 316 314 312 309 308 307 307 306 306 306 305 305 305 305
341 338 338 340 339 338 338 337 337 338 338 337 337 336 336 335 333 333 333 333 334 333 334 333 332 332 331 329 328 329 330 328 329 331 331 332 330 325 322 320 321 322 322 322 322 321 322 322 324 326 328 330 332 333 331 332 331 329 332 332 332 333 331 332 330 327 324 322 322 322 321 320 318 316 313 310 308 307 307 306 306 305 305 305 304
341 339 338 339 338 337 337 337 336 336 337 336 337 336 336 336 334 334 334 334 334 333 333 333 332 332 331 329 328 329 329 328 329 331 331 330 328 329 329 326 327 329 328 329 329 328 329 328 328 325 325 329 331 332 331 331 331 327 327 330 333 332 329 332 330 327 325 323 323 322 323 323 322 320 317 312 309 308 308 307 306 305 305 305 304
342 340 338 336 335 335 337 336 335 335 335 336 337 336 336 336 334 333 334 333 333 334 333 332 332 332 332 330 329 329 329 329 330 330 330 328 330 332 332 331 332 332 331 332 332 331 331 331 330 327 326 330 331 332 331 329 330 328 327 330 333 329 327 332 332 329 328 325 325 322 322 323 322 321 319 315 311 309 308 307 307 306 305 304 304
341 341 339 335 334 335 336 335 332 332 333 335 336 336 336 335 334 333 333 333 333 334 333 332 332 331 331 331 330 330 329 329 329 329 329 329 332 333 333 333 333 332 329 330 331 330 330 329 331 331 330 332 331 332 330 328 329 329 329 331 331 327 327 332 332 330 329 327 327 323 320 321 320 320 319 317 313 310 309 308 307 306 305 305 305
341 340 338 336 335 335 336 335 333 331 331 334 336 336 336 335 334 333 332 333 333 334 333 333 333 332 331 331 331 331 330 329 327 327 329 332 334 333 333 333 333 331 329 331 332 330 329 330 331 331 331 331 331 331 330 329 330 330 331 332 330 326 326 331 331 331 331 331 331 327 323 322 320 318 317 318 315 312 310 308 307 306 306 306 306
341 340 338 337 335 334 335 336 336 335 333 334 335 336 336 335 334 333 331 331 333 333 333 333 332 332 331 331 331 331 330 327 326 327 331 333 333 333 332 331 330 330 331 332 332 330 330 332 332 332 331 331 331 331 329 330 331 331 332 332 330 327 327 330 331 332 331 329 330 329 329 327 324 319 315 317 317 312 309 308 309 310 311 311 311
341 340 338 337 335 334 334 335 335 335 335 334 335 336 336 335 334 333 332 331 332 333 334 333 331 331 331 332 331 330 329 327 326 329 331 332 332 333 331 330 330 329 329 329 329 329 330 331 332 333 333 331 331 331 329 329 331 331 331 332 331 329 329 330 331 332 329 328 327 326 329 330 329 324 314 313 315 311 309 312 316 316 318 320 321
341 340 338 337 335 334 334 334 334 335 336 336 336 336 335 335 334 333 332 332 332 331 332 333 331 330 332 332 330 330 331 327 327 329 329 329 331 333 331 331 331 331 329 327 328 330 330 330 330 333 333 331 331 331 331 330 330 331 330 332 332 330 329 330 331 331 328 327 326 324 327 329 330 328 318 311 311 309 310 317 321 321 322 323 324
341 340 338 337 335 334 335 335 335 336 337 337 336 335 335 335 334 333 333 332 332 331 331 332 331 331 332 332 329 329 330 329 328 328 327 330 332 333 333 332 332 331 329 328 329 330 331 331 331 333 333 332 332 331 332 331 331 331 331 331 331 329 329 329 331 331 329 326 325 325 326 327 328 329 324 317 312 309 311 317 322 322 323 323 324
341 340 338 338 336 334 335 336 336 337 337 336 336 336 336 336 335 333 333 332 332 333 333 331 331 331 331 331 329 327 330 330 329 328 330 333 332 331 332 332 330 329 328 328 329 331 332 332 331 333 332 332 332 332 331 330 330 331 331 330 331 330 330 329 329 330 329 328 327 325 324 326 328 329 329 325 318 314 315 319 322 323 324 324 325
341 340 339 338 337 335 335 335 336 337 336 336 337 336 337 336 335 333 333 332 332 334 335 333 331 330 329 329 329 329 329 328 328 331 333 333 332 331 331 331 328 328 328 328 330 332 332 332 332 332 332 332 332 332 331 330 331 331 330 329 329 330 331 329 327 327 328 329 328 327 326 327 329 328 329 327 321 318 320 321 323 324 325 326 327
341 339 338 338 337 336 335 336 336 336 336 336 336 336 336 336 334 333 334 333 332 333 334 334 332 331 329 329 330 330 329 328 329 332 333 333 333 331 330 330 328 329 329 328 331 332 332 332 332 332 332 331 331 331 331 331 331 331 329 328 328 328 329 329 328 327 328 328 328 327 326 326 327 328 328 327 324 320 320 321 323 325 326 327 327
341 338 337 337 337 336 335 336 336 336 336 336 336 336 336 335 333 333 334 334 334 332 332 333 333 332 331 330 331 330 329 331 331 331 332 333 333 330 330 329 328 329 328 328 331 332 332 332 330 331 331 331 331 331 331 331 331 330 329 329 327 326 327 328 327 326 327 328 327 326 325 325 327 328 328 327 325 322 321 323 325 326 327 327 326
339 336 337 337 336 336 336 336 336 336 336 335 336 335 335 334 333 333 334 334 334 333 333 334 332 332 332 332 332 330 330 332 331 330 332 333 333 331 330 328 328 329 328 330 332 331 332 331 329 330 330 330 332 331 331 331 330 329 329 329 327 327 328 328 327 325 326 327 327 326 326 325 326 327 327 326 325 323 323 324 325 326 326 325 324
338 335 337 337 336 336 337 337 336 336 336 336 335 335 334 333 333 334 333 333 335 334 334 333 332 332 333 333 332 331 330 331 331 329 330 332 332 331 329 328 329 329 328 330 332 331 330 329 328 329 329 331 332 331 331 330 329 329 329 329 328 328 328 328 328 326 326 327 326 326 326 325 325 326 325 325 324 323 324 325 326 326 326 325 324
335 333 335 335 335 336 336 336 335 335 336 336 336 335 334 333 333 334 333 333 334 334 333 333 332 333 334 333 332 330 328 330 332 330 329 330 330 329 329 328 329 329 328 329 330 331 329 328 328 328 330 331 331 331 331 330 330 330 329 329 328 329 329 328 328 327 326 326 326 326 325 325 325 325 325 325 324 324 325 326 326 326 326 326 326
335 333 334 334 333 334 335 336 336 335 336 335 335 334 333 334 334 334 333 333 333 332 332 332 332 332 333 333 332 331 330 331 332 331 329 328 328 329 329 329 329 330 329 328 329 329 328 329 328 328 330 331 331 331 331 330 330 330 330 329 330 329 328 328 328 328 327 326 326 326 325 325 325 325 325 325 325 326 326 326 326 326 326 326 325
335 335 336 335 333 333 334 336 335 335 335 334 334 333 333 334 334 333 334 333 333 331 331 332 332 332 333 333 333 332 332 332 332 331 330 328 329 329 329 329 330 330 329 328 328 329 329 329 329 329 330 330 331 331 330 331 329 329 329 329 330 329 328 329 329 327 327 326 326 326 326 325 325 326 326 326 326 326 326 326 326 326 326 326 324
336 335 336 334 332 333 335 335 334 334 334 334 334 333 333 333 333 333 334 333 332 331 331 331 331 332 332 331 332 332 331 331 331 331 330 329 329 329 329 330 329 329 329 329 329 329 330 330 329 330 329 329 331 331 330 330 328 328 329 329 329 329 328 329 329 328 327 327 326 326 326 326 326 326 326 326 326 326 326 326 325 326 326 325 324
336 334 332 331 331 332 333 334 335 334 334 333 333 333 332 332 333 333 333 333 331 330 330 331 331 331 332 331 331 332 331 331 331 330 330 330 329 328 329 330 329 328 328 330 330 330 331 331 330 330 329 329 330 331 330 329 327 328 329 329 329 329 328 329 329 328 328 328 327 326 326 326 326 326 326 326 326 326 326 326 326 325 325 325 325
333 335 334 331 331 332 332 333 334 335 335 334 333 333 332 332 332 333 333 332 331 330 330 331 330 330 331 331 332 331 331 331 331 331 330 329 329 328 328 330 329 329 329 330 330 330 331 332 331 330 330 330 330 331 331 329 328 328 328 329 329 329 329 329 328 328 328 328 328 327 326 326 326 326 326 326 326 326 325 325 325 325 325 324 324
329 336 336 331 330 331 331 331 333 335 336 335 334 333 332 332 332 332 332 331 330 330 329 331 331 329 330 331 331 331 331 331 331 331 330 329 329 329 329 330 330 330 329 330 331 331 331 332 332 330 330 331 330 331 331 330 329 328 328 329 328 328 329 329 329 328 328 328 327 327 327 326 326 326 327 327 325 325 325 324 324 324 324 323 322
331 336 335 329 328 329 330 331 332 336 337 335 334 333 332 333 333 333 331 330 330 329 329 331 331 330 331 331 331 331 331 331 331 331 330 328 328 329 329 329 329 329 330 331 331 331 331 331 331 330 330 331 329 329 330 330 329 328 328 329 328 328 328 329 328 328 328 328 328 328 327 327 327 327 327 326 324 324 324 324 323 323 323 323 321
333 335 334 329 328 329 329 331 334 337 337 334 333 332 332 333 333 333 331 329 329 328 329 331 330 330 331 331 331 331 331 332 332 331 329 327 326 326 326 326 326 327 328 330 330 329 330 331 331 329 330 330 329 329 329 329 330 329 328 329 328 328 328 327 327 327 327 328 328 328 327 327 327 327 327 325 324 324 323 323 323 323 323 322 320
333 335 334 330 328 329 330 332 335 337 336 333 330 328 331 333 333 333 331 328 327 327 330 331 330 329 330 331 332 333 333 332 330 329 327 326 324 324 324 324 323 324 327 330 330 329 329 329 330 329 328 330 330 329 329 329 329 329 329 329 328 328 328 327 326 326 327 327 328 328 328 327 326 326 326 325 324 323 322 321 320 320 319 319 317
Wind_Speed
13 14 15 19 19 19 19 19 19 19 20 20 20 20 19 18 17 16 15 15 15 14 13 13 14 13 12 13 14 14 14 15 15 14 13 13 13 14 15 16 17 16 16 15 15 16 16 15 15 15 16 17 18 18 18 18 19 18 17 18 19 20 19 20 20 19 19 18 18 17 17 17 16 16 17 17 17 17 17 16 15 16 17 16 15
15 16 18 19 19 19 18 18 19 19 20 20 20 20 19 19 18 17 16 15 15 14 13 13 13 12 12 12 13 13 13 14 14 13 12 12 13 14 15 16 16 15 16 16 16 16 16 16 16 16 16 18 19 19 19 18 19 19 18 19 20 20 20 21 21 19 19 18 17 17 17 17 17 16 17 17 17 17 16 16 15 16 16 15 15
13 19 21 19 19 19 18 18 18 19 20 20 20 20 19 19 18 17 16 16 16 14 13 13 13 12 11 11 12 12 12 12 12 12 11 12 13 14 15 16 16 16 16 16 16 16 17 17 17 17 17 18 19 18 19 19 19 19 20 20 20 20 20 21 20 19 19 18 18 17 18 18 17 17 17 17 17 17 16 16 15 15 15 14 14
11 19 23 20 20 19 18 17 18 18 19 20 20 20 20 19 19 18 17 17 16 15 14 14 13 11 11 11 12 12 11 11 11 11 11 11 13 15 15 15 16 17 16 16 16 17 17 17 17 17 17 18 19 18 19 20 20 21 22 21 21 21 20 20 20 19 18 18 18 17 17 18 17 16 16 16 16 16 16 15 14 13 13 12 12
11 18 24 22 21 19 18 18 17 18 19 20 20 20 19 19 19 18 18 17 17 15 14 14 13 11 11 11 11 11 10 10 10 10 11 12 13 14 15 16 17 17 16 16 17 17 17 17 17 16 17 18 18 18 19 21 21 22 22 22 22 22 21 20 20 19 19 18 16 16 15 16 17 15 14 14 14 14 13 12 12 11 10 9 9
12 20 25 22 22 20 19 18 18 18 18 19 19 20 19 19 19 19 18 18 17 15 15 14 13 12 11 11 11 11 9 9 9 9 10 11 12 14 16 17 17 17 16 16 17 16 16 17 17 17 17 17 18 18 18 20 21 22 23 24 23 23 22 20 19 18 19 18 14 13 13 13 15 14 13 12 11 10 10 10 9 8 7 5 5
12 23 25 22 23 21 20 18 18 18 18 19 19 20 19 19 19 19 18 18 17 16 15 15 14 12 11 11 11 11 9 8 8 8 8 10 11 13 16 17 16 16 15 13 14 14 15 16 16 16 17 17 18 19 19 20 20 22 24 24 24 24 23 20 19 17 17 16 13 10 8 8 12 12 11 10 9 8 8 7 7 6 5 5 5
14 25 25 23 23 21 21 19 18 18 18 18 19 19 19 19 19 19 18 18 17 16 15 15 15 12 12 11 11 11 9 8 8 8 7 9 10 12 15 15 14 14 14 12 12 13 14 15 15 16 16 17 18 19 19 20 20 23 24 23 24 24 22 19 17 16 16 14 10 9 6 3 7 10 9 8 7 6 6 6 5 5 5 6 6
16 24 24 23 23 22 21 19 19 19 19 18 19 19 19 18 18 18 17 17 17 16 16 15 15 13 12 11 11 11 10 8 7 7 7 8 10 13 14 13 13 14 13 12 13 13 13 14 15 16 16 17 18 19 20 20 21 23 23 22 24 22 19 18 16 14 14 11 8 7 5 2 6 8 7 6 6 7 7 6 5 6 6 6 8
18 20 21 23 23 23 22 20 21 19 19 18 18 18 18 18 17 17 17 17 17 17 15 15 15 12 11 11 12 12 11 9 7 7 6 9 11 13 14 13 13 13 13 12 12 12 13 13 13 15 17 18 19 20 20 21 22 23 22 22 23 22 20 19 18 14 12 9 11 12 7 3 5 6 6 5 6 7 7 7 8 9 9 9 10
19 17 18 23 23 22 22 21 21 20 20 19 18 18 17 17 16 16 17 17 17 16 15 14 14 13 12 12 12 12 11 9 8 8 7 8 11 12 14 14 13 12 11 11 12 12 12 12 14 16 17 17 18 20 21 21 22 23 23 23 23 21 21 19 20 16 11 10 10 14 10 2 2 5 7 5 5 6 7 9 12 12 11 12 13
21 17 16 23 24 23 23 22 22 21 20 19 18 18 17 17 16 16 17 17 17 16 15 14 13 13 13 13 13 12 10 9 10 9 7 7 9 12 13 14 14 11 10 10 11 12 14 15 16 16 16 17 18 20 21 23 24 25 24 23 22 22 21 19 21 14 9 10 10 11 9 4 1 7 8 7 8 8 10 12 13 13 13 13 14
21 16 15 24 26 23 24 22 22 21 20 19 18 18 17 16 16 16 16 16 16 15 15 14 13 13 14 14 12 12 12 12 11 10 8 6 8 12 10 10 12 11 10 10 12 14 16 17 17 16 16 17 17 19 22 25 27 26 24 23 22 22 21 20 19 12 7 7 7 6 4 4 7 9 10 11 12 13 13 14 13 13 14 13 14
20 15 15 25 26 24 25 23 23 21 20 19 18 17 16 16 15 15 16 16 15 15 15 14 13 13 14 12 12 13 14 13 12 11 9 7 10 13 10 8 10 12 10 11 13 15 16 16 16 16 17 17 17 19 23 26 26 26 25 24 23 22 20 20 16 7 5 3 2 2 4 8 10 12 13 13 14 14 14 14 14 14 14 13 13
20 15 16 25 26 25 25 24 23 21 20 18 18 17 16 15 15 15 15 15 15 15 15 13 13 13 12 11 13 14 13 12 13 11 10 11 12 13 12 9 9 11 11 12 14 15 15 15 15 16 16 16 17 19 21 23 25 26 25 22 21 20 19 20 13 3 2 2 2 4 7 11 12 13 13 14 14 14 14 14 14 13 14 13 13
19 15 18 27 26 27 26 24 23 21 20 19 18 16 16 15 14 14 14 15 15 15 14 13 13 12 12 12 13 14 13 12 12 12 12 13 13 13 12 10 9 10 11 13 14 14 14 14 14 15 15 15 16 18 20 22 24 24 22 21 20 20 19 19 11 3 4 2 3 7 10 12 13 13 13 13 14 14 14 13 13 13 13 13 13
16 15 20 28 26 27 27 26 24 21 20 18 18 16 16 14 13 13 13 15 15 14 14 14 14 12 14 14 13 12 12 11 11 11 12 12 13 13 12 11 10 10 12 13 14 14 13 13 13 14 13 13 14 16 18 19 20 22 22 20 20 20 19 18 11 4 2 2 5 8 9 11 12 13 12 13 13 13 13 12 12 12 13 13 14
14 15 21 29 27 28 28 26 24 21 20 18 18 16 15 14 13 13 13 14 16 15 15 15 15 15 17 16 13 12 12 11 10 10 10 12 13 14 13 12 10 10 12 12 14 14 13 12 12 13 13 12 12 13 15 17 18 21 21 20 19 19 18 15 9 5 5 3 4 6 7 10 11 12 12 12 12 12 12 12 11 12 13 13 14
17 16 21 28 27 27 27 26 24 20 20 18 18 17 15 14 13 13 13 14 16 16 16 16 16 17 18 16 13 12 12 10 9 9 9 10 13 15 14 12 10 9 12 13 14 14 12 12 12 12 12 11 11 11 14 17 19 20 21 19 18 16 16 14 7 5 4 3 3 3 5 8 10 11 12 11 11 11 11 11 12 12 13 13 13
20 18 19 27 26 24 25 24 23 20 19 19 18 17 15 14 14 14 14 15 16 17 16 16 17 19 18 15 13 12 12 10 9 8 8 9 12 14 13 11 10 9 12 14 14 14 13 12 12 12 12 11 10 10 12 15 18 19 19 18 16 16 14 10 5 4 3 2 3 3 5 7 9 11 11 11 10 10 11 12 12 12 12 12 12
22 20 18 23 23 20 23 22 21 19 18 18 17 17 16 15 14 15 14 16 17 16 16 15 17 18 16 14 13 12 11 10 9 9 9 9 11 13 12 12 10 10 11 13 15 14 12 12 12 12 11 11 10 9 9 11 13 14 13 13 15 16 12 5 2 4 2 2 3 4 5 7 8 10 10 10 10 10 10 11 11 11 11 10 10
22 23 19 20 23 20 20 21 20 19 18 17 16 16 17 16 15 15 14 16 16 16 15 15 16 16 15 14 14 13 11 10 9 9 10 9 10 12 12 11 11 11 11 13 15 14 12 11 11 11 11 10 10 9 8 7 7 8 8 10 14 14 9 4 1 4 2 3 3 3 6 7 8 9 9 9 9 9 9 9 10 9 9 9 9
20 21 20 19 22 21 19 20 19 17 18 17 15 16 16 16 15 15 14 16 15 16 16 15 16 16 16 16 15 14 12 11 10 10 10 10 10 10 10 9 10 10 10 12 13 13 12 11 10 10 10 10 9 8 7 6 5 5 6 9 11 12 8 2 3 6 6 3 1 2 4 6 7 8 9 9 9 8 8 8 8 8 8 8 8
11 6 12 14 15 21 21 19 18 17 18 17 17 18 17 15 14 14 14 16 16 16 16 16 17 17 17 16 14 14 13 12 12 12 11 11 11 10 9 8 8 9 10 12 12 12 12 11 11 10 9 9 7 7 7 5 4 4 6 9 9 10 9 2 5 6 4 2 1 1 1 3 5 6 8 8 8 8 8 8 8 7 7 7 7
8 6 7 11 10 16 19 18 16 15 17 18 19 19 17 16 15 15 16 17 17 17 17 17 17 18 18 16 14 14 13 13 14 13 11 11 10 9 9 8 8 10 12 13 13 13 12 11 10 9 9 7 5 4 6 6 5 4 6 10 9 8 8 5 6 6 2 1 0 1 1 1 3 4 6 7 7 7 7 7 7 7 7 7 7
11 6 8 13 14 14 17 18 16 16 17 17 17 17 17 18 18 17 17 18 18 18 17 17 17 17 17 16 16 16 14 14 14 13 12 10 8 8 8 7 7 9 11 11 11 11 11 10 9 8 8 7 5 5 5 7 6 4 6 10 11 8 8 8 8 8 2 2 2 2 1 1 2 3 4 5 6 6 7 7 6 7 7 7 7
11 10 10 13 16 15 15 17 18 18 17 16 16 17 18 18 17 17 17 18 18 19 18 17 17 17 18 17 17 17 16 16 15 13 12 9 7 8 7 7 7 7 9 9 7 8 8 8 8 7 7 7 7 6 6 6 6 6 7 8 9 10 8 5 9 10 3 3 3 4 3 2 2 3 4 4 5 5 6 6 6 7 6 6 6
9 9 11 12 15 15 16 19 21 19 16 18 19 19 20 18 16 17 18 18 18 19 19 18 18 17 17 17 17 17 18 17 16 14 12 9 7 6 5 6 6 4 7 8 6 7 6 6 7 6 6 7 7 6 8 7 7 7 7 7 8 9 9 8 8 9 3 3 3 5 5 5 4 4 3 3 4 4 5 6 6 6 6 6 6
10 10 12 12 14 16 19 21 23 20 18 20 20 21 21 18 17 18 17 18 18 19 18 18 18 18 17 16 17 18 18 18 16 15 12 10 9 7 6 7 8 7 7 10 9 8 8 10 8 4 5 5 5 7 9 8 8 8 7 9 8 7 9 12 10 8 3 1 3 6 6 6 6 6 5 3 3 4 4 5 5 6 6 6 7
12 13 13 13 15 18 20 22 22 22 22 21 20 22 22 18 18 18 16 17 18 18 18 17 17 18 18 17 17 17 18 18 16 15 13 12 10 9 8 8 10 11 9 10 10 10 11 10 7 4 5 4 4 5 8 8 8 9 8 8 5 7 10 13 10 8 3 2 4 6 6 7 7 6 5 4 3 4 5 5 6 6 6 7 8
13 13 15 14 18 21 20 22 23 24 24 23 22 23 22 19 19 18 17 18 18 18 17 17 17 17 19 19 18 16 18 18 16 15 14 13 11 10 11 11 12 11 9 9 9 9 9 7 8 8 8 6 5 5 8 9 8 9 9 5 5 6 10 11 10 9 5 4 4 5 6 7 7 7 6 5 5 4 6 6 7 8 9 10 10
15 15 16 16 18 21 20 22 25 24 25 25 24 24 22 20 19 19 19 19 16 17 17 16 17 17 19 22 20 18 18 18 17 16 14 13 13 12 12 12 12 10 10 10 9 9 8 7 8 8 8 7 8 9 9 9 8 9 10 7 6 7 9 10 10 10 7 4 3 3 3 5 6 8 7 6 5 5 8 10 11 12 13 14 14
16 16 17 16 17 20 21 22 23 23 24 24 24 25 23 20 20 20 20 20 17 17 16 16 17 17 20 22 21 20 19 18 18 17 15 15 14 13 13 12 10 10 10 10 9 10 9 8 9 8 9 10 9 9 10 11 10 10 10 8 8 9 9 8 9 10 7 3 3 2 1 2 5 7 8 6 5 7 11 13 14 15 15 15 15
18 17 17 15 17 21 22 23 22 22 24 23 24 25 24 21 20 20 19 19 19 17 15 15 17 19 21 21 20 19 18 19 18 17 17 17 15 14 13 12 11 11 10 10 10 10 9 8 9 8 8 10 9 9 9 10 10 10 10 9 7 8 7 7 8 9 8 5 4 3 3 2 3 5 8 8 7 9 12 13 12 13 13 13 13
19 18 18 16 18 22 23 24 23 23 24 22 22 22 23 21 20 20 19 18 19 18 15 14 17 20 22 22 21 20 18 18 18 19 20 17 15 15 14 13 12 11 10 10 10 9 8 8 10 9 8 9 9 9 7 7 8 8 8 9 6 4 6 5 6 7 7 6 5 4 3 0 1 2 6 8 9 8 10 11 11 11 10 9 9
18 18 18 17 19 23 24 24 24 23 23 22 22 21 20 19 19 19 19 20 19 17 16 16 17 19 21 22 21 20 19 18 19 19 19 15 14 14 14 13 11 10 10 10 10 9 8 8 10 10 9 9 7 7 6 6 8 7 6 7 4 3 3 4 6 5 4 5 5 6 4 3 4 3 5 7 8 8 9 9 9 9 8 8 7
16 17 18 19 21 23 24 24 24 23 23 23 23 22 21 18 18 18 18 20 19 16 16 17 19 19 20 20 20 20 19 19 21 20 16 14 14 14 13 11 10 10 10 11 10 9 9 9 9 9 9 9 7 5 6 6 7 5 5 6 4 2 1 3 6 6 4 5 6 7 6 6 7 4 5 6 7 8 8 8 7 7 7 6 6
17 17 16 19 20 22 25 23 24 24 24 25 23 23 22 18 17 18 18 19 16 15 15 16 19 20 20 20 20 21 20 19 20 18 16 15 14 12 11 10 10 10 10 11 11 10 9 10 9 8 8 9 8 7 7 7 6 4 5 5 4 3 2 3 4 6 6 5 7 8 8 7 7 6 6 6 6 6 6 5 6 7 6 5 5
18 17 14 19 19 21 26 24 23 25 24 24 24 23 21 18 18 18 19 18 15 15 16 15 18 18 19 20 20 20 18 17 17 17 17 15 13 12 11 10 10 10 10 11 11 10 10 10 9 9 8 7 7 8 8 8 7 5 5 5 4 4 5 4 4 5 5 5 8 8 8 7 7 7 6 6 6 6 6 5 6 6 5 5 4
18 16 14 18 19 21 25 25 24 24 24 24 24 23 21 19 19 19 19 19 16 15 16 16 17 18 17 18 18 18 17 16 16 18 16 13 12 12 11 11 11 10 11 11 10 10 11 10 9 9 9 7 6 7 8 7 5 5 5 4 4 5 6 6 4 4 4 6 8 7 7 8 8 8 7 6 6 7 7 6 6 6 5 5 5
17 15 16 18 19 20 24 25 24 24 25 26 25 22 21 19 19 18 18 20 18 17 17 18 18 17 16 16 17 18 16 16 17 17 16 14 13 12 11 11 11 10 11 12 11 10 10 9 9 8 9 9 8 7 7 6 4 5 5 4 4 5 5 4 3 3 4 5 7 8 8 8 9 8 7 7 7 7 7 6 6 6 5 6 6
17 15 16 17 19 20 23 23 23 24 26 25 23 21 20 19 19 18 17 19 18 17 19 19 19 18 16 15 17 17 15 16 16 15 16 16 14 12 11 11 11 10 11 12 11 10 8 7 8 8 9 9 9 8 8 7 5 5 6 5 5 4 4 4 4 3 4 6 8 9 9 9 8 8 8 8 7 7 7 6 6 6 6 7 7
15 14 15 16 18 19 22 23 23 23 23 21 20 19 19 19 18 17 16 18 17 17 19 18 18 18 15 15 16 17 16 17 16 14 14 15 14 12 10 10 12 11 11 11 11 10 9 8 8 8 9 9 9 9 9 8 7 6 7 7 5 5 5 6 7 6 5 7 10 10 10 10 9 9 9 8 8 8 8 7 6 6 6 7 8
14 13 14 16 17 18 22 24 23 20 19 18 17 17 19 18 17 17 16 17 18 18 18 17 18 18 15 15 16 15 14 13 13 12 12 13 13 11 9 10 11 10 10 10 10 9 9 9 9 9 10 9 9 10 9 9 8 7 7 6 6 6 5 6 9 9 7 9 12 11 10 10 11 11 9 9 9 8 8 7 6 6 6 7 8
13 13 16 19 19 19 22 23 21 18 17 17 16 17 18 18 18 18 16 16 18 18 18 18 19 19 17 16 14 14 13 10 11 11 10 11 11 10 9 9 9 9 9 9 8 8 7 9 10 10 10 10 10 9 10 10 8 7 7 6 6 4 5 10 11 10 8 9 12 11 9 10 11 11 9 9 9 8 8 7 5 6 7 8 8
12 15 18 21 20 20 23 23 20 18 16 16 16 17 18 18 19 19 17 17 17 17 18 18 18 17 16 15 13 13 12 10 10 10 10 10 10 9 9 8 7 8 9 8 7 7 6 7 9 10 10 10 10 8 9 10 8 8 8 6 5 4 7 11 11 11 10 8 10 10 9 10 10 10 10 9 7 8 9 7 6 6 7 8 9
16 19 21 21 20 20 24 23 18 16 16 16 17 18 18 18 19 19 18 19 18 17 17 18 17 15 12 13 12 11 11 10 10 10 10 9 9 9 8 7 6 6 8 8 7 6 6 7 8 8 9 10 9 8 8 9 9 9 9 6 4 4 8 10 9 12 13 9 9 9 10 11 10 10 10 9 8 8 9 8 8 7 6 7 7
21 22 22 23 23 22 23 23 17 14 16 16 16 18 19 17 18 18 18 19 18 16 17 16 15 13 11 12 12 11 12 11 11 11 10 9 9 8 8 8 7 7 8 8 7 6 7 8 8 8 8 8 9 9 7 7 8 8 8 7 5 4 7 9 8 10 12 12 11 9 9 10 9 9 9 10 10 10 10 9 9 8 7 5 4
22 24 25 27 28 25 23 21 17 15 15 13 14 16 17 17 17 18 18 18 17 17 16 15 14 13 12 13 12 12 12 12 11 11 10 10 10 9 9 9 8 8 8 7 7 7 8 9 9 8 8 7 8 9 7 7 8 8 7 7 6 6 7 9 8 8 10 12 12 11 11 11 10 9 10 12 14 14 13 11 10 11 10 6 4
25 25 26 28 29 28 25 21 18 16 15 12 11 12 15 18 18 18 19 18 18 18 17 15 14 14 13 13 12 12 12 12 13 12 11 11 11 10 10 9 9 8 7 6 7 8 8 8 7 8 8 7 7 9 8 7 8 8 7 7 7 7 8 10 10 9 11 12 11 12 12 13 13 11 12 13 13 13 13 13 14 14 13 11 7
27 27 27 28 29 28 25 21 19 17 15 13 12 10 14 20 20 19 20 19 18 18 18 18 16 15 14 13 13 13 13 14 14 13 12 11 11 10 10 10 9 8 8 8 7 8 8 7 6 7 8 7 6 7 7 8 9 8 7 7 7 8 8 9 9 9 11 12 12 13 13 11 12 13 13 12 11 12 13 12 12 12 12 12 7
Wind_Direction
167 167 173 168 157 152 151 144 144 142 143 145 147 149 149 148 146 146 142 139 137 136 133 128 125 123 124 132 137 133 132 133 133 130 127 124 120 118 114 110 104 102 100 97 95 91 87 87 87 91 92 94 104 107 102 100 102 107 109 109 107 101 93 89 86 85 87 89 89 89 90 91 94 94 93 92 91 90 89 88 86 86 84 81 82
164 166 170 169 160 154 151 145 146 143 145 148 149 152 152 151 150 151 148 146 143 140 136 129 127 126 123 126 134 134 132 134 134 133 131 127 124 122 119 113 110 108 104 100 98 94 91 91 89 90 90 92 100 105 105 101 101 105 105 106 105 101 95 90 85 83 85 87 88 91 94 93 93 92 90 90 89 89 88 87 85 84 82 80 79
161 163 167 165 162 157 153 149 146 146 148 149 153 154 156 155 155 156 153 151 148 143 137 132 129 129 126 121 126 132 132 132 133 134 136 132 130 128 123 119 118 115 106 103 102 100 96 93 91 92 92 91 96 101 104 102 102 105 104 103 102 97 93 89 83 80 83 85 88 93 96 95 92 91 89 89 90 89 86 85 83 82 81 79 77
169 163 164 163 161 158 154 150 147 148 150 153 156 158 159 159 158 160 158 155 153 148 141 136 134 133 130 123 120 126 131 131 132 135 140 139 137 132 127 126 125 119 110 107 106 104 100 95 93 91 93 93 96 100 102 102 102 105 104 102 98 93 89 85 80 78 80 84 89 91 94 96 93 93 92 90 90 90 87 85 84 82 82 80 78
181 167 163 163 160 159 155 151 149 151 153 157 160 161 162 161 163 163 162 160 158 153 146 141 140 140 134 129 121 121 128 130 133 136 142 145 141 135 130 129 127 121 114 111 108 105 102 98 97 95 94 95 98 101 103 103 103 104 105 101 96 91 85 80 77 77 78 78 83 90 92 96 98 96 95 92 91 92 91 90 88 86 83 80 78
189 168 164 165 160 159 155 152 151 153 156 159 162 163 165 165 167 166 166 164 161 158 152 149 147 147 140 133 126 123 128 130 134 138 146 146 140 136 133 130 126 124 120 113 108 104 102 100 100 99 98 99 101 104 107 108 107 107 105 100 95 87 80 73 68 71 76 69 62 80 92 99 104 103 103 101 95 91 87 84 82 80 80 87 90
178 163 165 166 162 158 155 154 152 155 157 160 164 164 167 168 169 169 169 167 165 163 158 155 152 152 145 138 132 129 130 133 135 137 142 138 137 134 132 129 126 128 128 117 108 105 101 100 101 102 103 105 106 108 110 112 111 110 107 103 95 86 78 71 64 63 68 60 41 53 86 109 112 109 110 106 99 95 87 81 71 62 61 73 88
165 163 167 167 163 158 154 154 152 155 157 160 164 166 169 169 171 172 172 170 168 166 165 158 155 157 150 144 138 135 135 137 137 141 142 137 141 135 129 129 128 132 134 121 112 111 104 103 103 104 107 108 111 111 112 114 114 113 110 104 95 86 79 72 70 70 67 60 40 36 43 98 126 113 109 103 92 89 86 80 67 57 51 52 71
158 163 169 167 162 158 154 153 152 153 155 158 162 166 170 170 173 174 174 172 171 170 168 160 158 159 153 149 143 138 136 136 135 137 143 146 147 139 135 134 131 131 131 123 116 113 108 108 106 108 110 110 114 115 115 115 116 117 112 106 99 90 81 73 74 82 80 84 100 87 54 79 140 130 108 91 72 67 66 62 59 65 63 57 67
150 161 170 167 162 158 154 152 151 152 154 157 161 165 168 171 173 173 174 172 172 174 169 161 159 159 155 151 145 139 137 140 137 128 132 147 150 144 140 133 127 125 125 124 120 116 114 112 111 113 113 112 114 117 120 118 119 118 113 108 102 93 87 83 80 84 90 109 135 139 139 91 110 121 97 75 60 57 54 55 62 68 68 67 69
152 161 174 168 163 157 154 153 151 152 153 155 158 161 165 166 168 171 173 173 174 176 171 163 159 160 157 152 145 142 143 147 143 130 127 138 148 147 138 129 121 120 123 127 125 122 121 117 115 116 115 115 114 117 122 123 123 118 112 107 102 98 95 92 88 88 101 123 151 163 176 232 33 85 89 82 68 62 59 65 68 68 68 66 67
161 167 177 169 162 157 155 154 152 152 153 154 153 154 157 157 160 165 170 173 175 176 171 165 162 162 160 154 149 147 147 148 144 141 139 135 142 141 134 130 124 125 133 135 134 129 126 122 118 117 116 117 115 117 121 124 123 117 112 107 103 99 93 88 88 92 112 135 165 182 197 221 106 86 89 92 82 78 76 74 72 69 67 64 68
165 169 174 166 160 158 157 156 155 154 152 151 149 147 147 147 152 157 166 171 174 175 171 169 167 165 163 158 153 149 146 145 146 151 153 142 139 135 129 132 132 139 147 145 141 134 130 125 121 120 118 118 117 117 119 121 121 117 112 106 102 97 93 89 88 100 123 143 170 183 182 135 110 95 88 86 81 81 82 79 76 71 67 65 70
164 168 170 164 161 159 160 160 158 155 153 150 146 143 139 141 145 152 162 169 173 174 174 174 170 165 164 159 154 147 143 145 149 157 155 141 143 139 135 145 149 150 155 152 144 136 132 128 124 122 119 119 119 119 121 123 121 116 110 104 100 95 94 90 89 116 137 144 162 148 135 109 99 94 88 86 84 85 86 83 79 75 70 66 68
169 177 172 167 164 162 164 163 161 157 154 149 144 139 136 138 143 151 160 167 171 173 175 173 166 162 161 158 154 149 143 145 150 155 145 138 147 144 143 162 171 163 160 153 144 138 135 131 127 123 121 121 121 123 126 126 119 113 108 104 101 96 96 94 95 119 51 13 40 85 106 101 96 95 93 94 92 88 86 85 84 81 76 71 68
177 180 174 173 169 165 167 166 164 159 154 148 143 138 136 139 143 152 159 165 170 171 172 168 162 161 160 157 154 152 147 147 147 146 140 141 151 149 153 175 182 170 161 153 148 144 139 134 129 123 121 121 123 127 129 126 118 113 110 106 103 99 94 91 92 48 24 30 92 98 102 101 102 100 98 97 93 91 90 89 89 87 83 78 74
182 175 174 177 174 169 170 169 165 159 154 147 143 140 138 142 143 152 158 164 168 169 169 164 161 160 159 155 153 155 152 149 142 140 141 144 157 161 167 183 184 171 161 156 155 149 142 137 132 124 119 119 123 126 131 128 121 118 113 110 107 103 98 96 100 98 88 127 104 99 107 107 107 105 101 97 96 95 94 92 90 88 85 82 81
180 179 179 179 178 173 171 168 164 157 152 147 145 143 141 144 143 150 158 163 167 168 168 164 161 157 155 154 155 158 155 154 144 142 150 153 164 172 178 187 185 173 166 164 162 153 145 142 137 129 120 117 117 119 127 128 125 121 115 111 105 103 100 100 116 165 193 174 104 89 102 109 108 107 105 100 100 100 97 94 90 89 88 86 85
173 186 186 182 181 174 172 167 161 155 152 149 147 146 144 145 144 149 158 163 165 165 167 162 157 156 156 155 158 162 158 158 151 151 163 163 166 174 184 190 187 183 178 175 167 155 147 146 141 133 125 116 111 110 118 123 124 120 113 108 105 104 97 99 132 203 216 170 123 109 108 111 109 108 105 101 101 101 99 94 92 92 91 88 87
174 187 192 186 181 173 171 165 160 155 153 151 148 148 147 145 145 150 156 161 162 163 166 161 156 157 159 158 160 164 160 160 160 163 170 167 167 176 189 193 193 195 188 180 169 158 152 149 144 138 131 122 112 109 114 120 121 117 111 107 106 102 96 114 173 246 255 187 122 123 125 113 110 108 104 103 102 100 98 96 96 95 94 91 89
180 185 192 183 176 171 167 162 159 157 155 153 150 149 148 146 146 149 154 159 160 164 165 159 158 158 159 161 161 162 163 164 167 172 172 170 171 180 191 198 199 200 196 185 170 163 156 150 145 139 136 129 120 116 117 118 119 115 109 105 100 92 90 117 234 284 238 144 96 106 123 114 107 106 103 102 101 100 100 100 99 98 97 94 91
185 184 188 178 173 169 161 159 156 158 156 150 151 148 146 147 147 149 157 162 163 166 165 162 161 158 160 165 165 165 167 170 173 178 177 175 177 183 192 200 205 205 201 188 173 166 162 155 148 142 138 133 128 128 126 123 120 109 104 105 99 92 96 118 260 281 306 62 71 95 110 110 106 103 102 101 102 104 103 102 100 100 99 96 93
190 191 186 172 168 159 150 156 155 158 154 147 152 149 146 146 146 152 162 165 166 168 168 169 166 161 165 172 173 172 172 176 176 180 183 183 184 189 197 201 207 211 201 191 181 170 167 161 155 150 143 139 139 138 137 139 130 112 106 106 103 105 114 132 252 273 312 350 57 85 104 109 109 105 103 102 104 104 103 103 102 102 101 98 94
171 162 167 157 150 148 146 155 159 161 160 159 158 150 143 142 144 156 166 167 169 171 171 174 171 169 174 178 181 178 174 178 179 179 184 186 187 193 202 204 202 199 192 190 187 179 176 172 166 159 153 156 155 147 150 157 157 145 111 101 103 117 123 142 266 279 318 313 302 58 128 111 112 110 105 104 103 103 102 104 103 102 101 98 94
153 70 142 163 153 150 150 157 165 168 170 169 161 154 148 148 153 164 172 172 173 174 175 179 178 179 180 181 185 184 179 183 185 180 184 187 184 193 204 206 191 181 182 185 188 187 183 181 180 171 168 170 173 177 173 176 190 185 127 118 114 116 134 173 241 281 358 92 82 74 143 117 126 115 107 106 105 106 105 104 103 99 97 98 95
181 147 149 171 173 164 156 158 165 169 169 166 159 159 159 158 162 171 176 178 179 177 179 183 183 184 182 183 188 189 185 188 189 183 187 186 183 197 199 188 169 161 170 176 183 190 191 194 193 186 181 169 182 233 206 185 196 188 158 145 135 139 167 192 234 267 314 107 96 86 110 136 140 128 122 119 113 112 110 107 104 98 95 94 93
185 165 149 164 174 173 162 156 164 171 168 168 166 163 165 161 165 175 177 180 183 182 185 185 184 186 183 184 189 190 189 190 190 188 188 183 182 191 184 162 148 147 157 159 163 171 182 192 194 197 194 174 176 229 238 202 194 191 184 164 153 166 181 202 243 252 226 123 101 93 93 96 100 104 123 136 130 123 116 109 104 100 97 96 94
173 165 163 166 176 180 172 161 163 171 174 178 174 165 165 163 170 181 178 179 183 184 187 188 185 187 189 191 192 192 190 189 189 191 188 181 178 171 170 154 142 151 146 153 172 142 138 180 205 212 192 180 171 206 247 230 206 216 212 191 175 171 175 185 227 247 220 125 96 82 71 70 63 56 82 132 143 137 123 111 104 101 97 94 90
179 181 178 171 176 179 180 174 166 170 181 185 175 164 166 167 177 187 182 180 183 186 189 193 191 188 194 197 191 190 189 190 188 186 183 178 173 163 171 155 156 195 164 164 190 162 164 193 204 199 157 179 183 196 238 244 225 225 215 206 185 156 177 185 203 243 247 128 81 69 61 62 60 53 61 94 133 141 125 113 105 99 94 90 85
197 196 187 177 177 179 186 185 175 175 185 188 176 168 171 174 179 185 186 184 186 191 191 195 197 191 195 194 188 188 185 187 186 182 180 172 169 168 172 163 177 204 178 168 185 176 185 189 182 171 151 198 215 206 241 241 225 222 211 213 177 159 198 197 201 229 228 94 70 66 62 58 55 56 58 66 100 126 121 114 105 99 96 92 88
202 197 187 179 175 178 187 188 183 181 184 183 179 175 176 178 178 180 187 190 188 191 193 195 199 194 193 192 190 189 183 185 186 184 183 172 172 180 180 184 195 197 176 173 182 177 179 166 166 171 162 191 207 206 253 244 223 230 216 181 121 155 194 196 205 209 177 104 79 67 60 56 48 49 52 58 76 105 115 109 102 98 97 94 93
203 198 192 184 176 179 185 187 186 183 182 180 178 178 178 176 176 181 187 189 189 190 195 196 199 199 193 190 187 185 186 189 188 185 185 180 182 196 198 199 201 194 186 185 182 174 171 161 164 168 166 187 195 195 235 243 226 233 222 182 151 169 173 175 197 191 155 114 101 71 50 55 45 45 51 61 73 102 115 110 108 105 100 98 96
207 202 200 193 181 184 186 188 188 186 185 181 177 176 177 176 176 183 184 184 187 189 193 192 195 198 191 187 181 182 189 190 188 184 190 194 188 196 202 198 199 198 193 186 182 176 175 178 174 180 186 189 196 197 217 234 232 231 229 216 195 188 179 177 193 182 156 161 177 202 229 81 50 41 51 66 80 115 123 116 114 111 106 103 98
211 206 201 194 186 188 187 190 190 187 186 181 176 174 177 177 175 181 183 182 184 183 185 185 188 190 190 189 182 182 190 189 188 187 198 202 188 190 196 192 195 199 193 184 183 179 179 183 172 178 194 195 202 200 208 227 230 224 222 225 208 186 189 193 195 177 154 176 210 230 219 111 68 51 61 73 90 125 133 124 118 113 108 102 96
214 211 201 192 188 188 188 190 188 185 185 179 176 176 176 175 173 177 181 182 182 178 174 177 183 184 187 189 183 184 188 187 188 192 200 197 184 188 189 189 198 199 194 189 184 180 180 177 166 174 192 203 211 203 206 220 217 214 212 222 223 188 193 199 201 179 151 175 208 206 200 180 203 89 79 81 92 123 134 127 122 114 107 99 92
216 213 205 196 190 187 188 189 184 184 185 179 176 176 173 171 170 170 177 181 179 175 166 166 178 179 183 189 187 189 191 190 191 193 195 189 185 192 188 190 199 191 186 187 185 180 180 184 179 180 189 200 213 208 206 211 208 209 207 213 217 203 203 196 205 201 157 161 178 185 186 198 206 147 100 91 92 111 116 115 116 108 104 103 103
222 219 209 198 195 192 192 190 184 185 184 180 177 176 174 169 166 167 174 181 180 175 164 161 172 179 186 191 190 192 192 193 195 191 185 183 188 194 192 190 186 181 182 180 183 180 178 193 189 179 187 192 198 199 192 201 206 217 228 220 218 228 183 175 202 213 191 160 164 180 173 169 180 155 120 110 100 110 113 108 106 102 101 101 100
225 230 215 201 202 199 197 190 184 185 183 181 178 174 175 169 167 167 168 176 177 173 169 166 172 178 183 187 191 194 192 191 193 187 178 184 190 191 195 195 184 185 184 176 182 184 181 198 195 179 189 189 184 182 182 197 202 215 234 223 219 222 177 180 204 214 216 193 179 176 165 169 176 157 138 128 116 115 116 110 105 103 100 92 86
228 233 216 201 205 203 197 189 185 186 183 183 179 173 173 170 170 170 168 173 172 170 176 174 176 181 179 182 189 192 192 189 189 186 182 187 192 192 195 196 194 190 183 179 186 193 191 196 194 185 190 187 187 187 180 189 190 190 207 197 188 175 159 173 194 212 214 186 182 174 163 173 173 163 155 139 128 126 124 117 111 106 99 94 87
235 228 207 199 203 202 194 188 188 186 184 184 179 173 173 172 173 175 174 175 175 176 178 175 179 187 181 182 188 188 190 190 189 190 186 183 190 200 201 195 197 192 184 186 192 202 206 202 191 184 183 176 185 193 183 185 186 181 180 166 164 152 142 154 170 202 199 174 180 176 163 168 168 168 171 158 145 140 134 125 121 113 106 104 95
239 219 198 198 202 201 193 191 191 187 187 186 179 176 179 178 175 175 174 174 178 181 180 180 183 186 182 182 186 186 188 189 190 191 188 188 196 208 212 200 197 196 194 194 196 205 210 205 190 180 177 172 174 186 194 205 209 187 164 138 150 146 142 149 138 176 183 170 176 177 175 175 167 165 174 170 156 149 143 130 128 121 113 112 100
234 209 195 199 203 202 196 195 195 189 189 186 180 180 185 185 180 177 176 176 181 181 179 183 181 181 182 180 183 186 189 190 191 191 193 201 210 215 216 206 199 202 204 201 202 206 205 200 190 179 172 173 174 180 195 198 184 177 161 149 148 134 131 125 105 131 160 161 170 174 177 178 171 164 169 166 158 157 149 135 136 129 114 110 103
224 200 196 203 204 203 197 195 196 192 189 185 184 186 187 185 182 180 181 183 187 181 178 181 179 179 180 178 183 188 191 188 187 193 201 207 216 220 216 207 204 208 209 206 206 208 209 203 192 179 171 175 180 181 189 187 174 168 158 150 145 138 132 115 106 117 132 150 162 160 162 169 167 165 168 164 161 157 145 138 134 125 113 104 102
215 198 197 204 203 198 195 194 195 193 191 190 190 192 188 181 180 184 187 189 188 182 179 181 181 182 183 183 186 191 194 189 188 200 207 207 214 218 215 207 207 212 210 206 207 208 210 204 193 183 173 173 182 180 182 191 187 175 163 154 152 146 136 128 121 118 120 135 149 153 154 158 162 165 163 157 152 143 138 140 132 123 121 108 104
213 208 204 210 206 195 193 193 192 192 194 197 195 194 191 184 184 188 192 192 186 183 184 183 184 185 189 193 193 194 197 195 195 201 205 207 209 209 210 208 209 213 206 202 208 208 203 199 194 186 173 173 186 183 177 190 199 186 171 151 150 164 156 144 129 121 130 141 146 153 154 155 160 163 156 146 143 136 134 139 143 143 138 127 121
217 224 222 219 211 199 195 192 191 193 197 204 201 194 193 192 192 194 195 190 187 189 187 185 186 183 184 190 190 190 194 193 193 196 200 202 201 200 205 208 210 209 201 198 202 201 192 190 193 186 175 181 190 186 176 184 197 193 180 149 137 153 153 147 134 129 138 148 149 153 156 155 155 158 157 148 142 139 134 130 138 145 140 138 135
221 226 225 219 211 203 198 194 192 196 202 209 205 196 197 199 198 199 196 190 190 190 186 185 186 182 178 182 186 187 189 189 187 190 193 193 194 194 196 201 205 197 193 193 193 196 187 183 194 188 182 191 190 182 179 182 189 193 189 172 150 135 144 155 153 143 141 146 153 155 158 157 152 154 157 150 140 134 129 119 111 113 118 129 137
215 213 217 218 215 209 202 199 196 196 203 208 206 201 201 201 198 197 192 189 190 188 187 185 181 182 180 182 190 189 187 187 186 188 189 189 191 186 186 193 194 186 186 188 188 195 187 183 199 195 183 193 189 180 185 185 185 190 192 188 178 154 157 166 160 148 146 146 149 150 151 154 151 148 149 139 123 115 116 108 98 98 100 107 140
204 204 216 221 217 211 205 204 202 197 197 199 205 207 205 201 195 192 190 188 187 187 191 186 179 184 182 183 194 191 186 187 187 190 189 188 188 183 185 188 187 185 182 184 190 193 188 188 202 199 185 194 193 191 200 195 184 181 191 199 183 165 173 176 163 155 156 150 150 154 148 145 145 144 143 130 114 109 117 122 128 128 125 138 182
197 203 215 219 214 209 205 204 203 196 188 183 190 204 213 209 201 198 195 191 187 185 189 188 185 189 183 185 194 189 185 187 188 192 190 187 188 187 187 184 185 187 176 185 199 196 192 193 198 195 190 193 195 199 201 193 184 179 190 199 181 171 180 179 170 165 166 159 158 163 155 151 151 148 142 132 125 131 139 149 163 160 158 186 212
198 201 208 212 208 206 204 202 201 196 187 178 178 199 223 219 210 207 202 197 195 191 192 192 189 190 187 185 188 189 190 191 192 194 190 189 188 187 187 182 184 183 173 185 199 196 196 197 193 188 189 191 193 202 197 189 191 188 192 194 182 184 186 177 172 171 171 165 161 162 159 159 157 147 139 135 144 156 156 165 176 171 180 204 209